Time,TemperatureF,DewpointF,PressureIn,WindDirection,WindDirectionDegrees,WindSpeedMPH,WindSpeedGustMPH,Humidity,HourlyPrecipIn,Conditions,Clouds,dailyrainin,SoftwareType,DateUTC
2013-03-30 00:00:00,39.7,20.2,-100.00,NW,316,0.0,0.0,45,-99.99,,,0.00,LWC V2.10 B1813,2013-03-30 04:00:00,
2013-03-30 00:01:00,39.7,20.7,-100.00,NW,316,0.0,0.0,46,-99.99,,,0.00,LWC V2.10 B1813,2013-03-30 04:01:00,
2013-03-30 00:06:00,39.7,20.7,-100.00,NW,316,0.0,0.0,46,-99.99,,,0.00,LWC V2.10 B1813,2013-03-30 04:06:00,
2013-03-30 00:11:00,39.6,20.5,-100.00,NW,316,0.0,0.0,46,-99.99,,,0.00,LWC V2.10 B1813,2013-03-30 04:11:00,
2013-03-30 00:16:00,39.6,21.0,-100.00,NW,316,0.0,0.0,47,-99.99,,,0.00,LWC V2.10 B1813,2013-03-30 04:16:00,
2013-03-30 00:21:00,39.6,21.0,-100.00,NW,316,0.0,0.0,47,-99.99,,,0.00,LWC V2.10 B1813,2013-03-30 04:21:00,
2013-03-30 00:26:00,39.6,21.0,-100.00,NW,316,0.0,0.0,47,-99.99,,,0.00,LWC V2.10 B1813,2013-03-30 04:26:00,
2013-03-30 00:31:00,39.6,21.5,-100.00,NW,316,0.0,0.0,48,-99.99,,,0.00,LWC V2.10 B1813,2013-03-30 04:31:00,
2013-03-30 00:36:00,39.6,21.0,-100.00,NW,316,0.0,0.0,47,-99.99,,,0.00,LWC V2.10 B1813,2013-03-30 04:36:00,
2013-03-30 00:41:00,39.4,21.3,-100.00,NW,316,0.0,0.0,48,-99.99,,,0.00,LWC V2.10 B1813,2013-03-30 04:41:00,
2013-03-30 00:46:00,39.6,21.5,-100.00,NW,316,0.0,0.0,48,-99.99,,,0.00,LWC V2.10 B1813,2013-03-30 04:46:00,
2013-03-30 00:51:00,39.4,21.3,-100.00,NW,316,0.0,0.0,48,-99.99,,,0.00,LWC V2.10 B1813,2013-03-30 04:51:00,
2013-03-30 00:56:00,39.4,21.3,-100.00,NW,316,0.0,0.0,48,-99.99,,,0.00,LWC V2.10 B1813,2013-03-30 04:56:00,
2013-03-30 01:01:00,39.2,20.7,-100.00,NW,316,0.0,0.0,47,-99.99,,,0.00,LWC V2.10 B1813,2013-03-30 05:01:00,
2013-03-30 01:06:00,38.8,20.8,-100.00,NW,316,0.0,0.0,48,-99.99,,,0.00,LWC V2.10 B1813,2013-03-30 05:06:00,
2013-03-30 01:11:00,39.0,21.5,-100.00,NW,316,0.0,0.0,49,-99.99,,,0.00,LWC V2.10 B1813,2013-03-30 05:11:00,
2013-03-30 01:16:00,39.2,21.7,-100.00,NW,316,0.0,0.0,49,-99.99,,,0.00,LWC V2.10 B1813,2013-03-30 05:16:00,
2013-03-30 01:21:00,39.2,21.2,-100.00,NW,316,0.0,0.0,48,-99.99,,,0.00,LWC V2.10 B1813,2013-03-30 05:21:00,
2013-03-30 01:26:00,39.0,21.0,-100.00,NW,316,0.0,0.0,48,-99.99,,,0.00,LWC V2.10 B1813,2013-03-30 05:26:00,
2013-03-30 01:31:00,38.7,20.7,-100.00,NW,316,0.0,0.0,48,-99.99,,,0.00,LWC V2.10 B1813,2013-03-30 05:31:00,
2013-03-30 01:36:00,38.5,20.5,-100.00,NW,316,0.0,0.0,48,-99.99,,,0.00,LWC V2.10 B1813,2013-03-30 05:36:00,
2013-03-30 01:41:00,38.8,21.3,-100.00,NW,316,0.0,0.0,49,-99.99,,,0.00,LWC V2.10 B1813,2013-03-30 05:41:00,
2013-03-30 01:46:00,39.0,21.0,-100.00,NW,316,0.0,0.0,48,-99.99,,,0.00,LWC V2.10 B1813,2013-03-30 05:46:00,
2013-03-30 01:51:00,39.0,21.0,-100.00,NW,316,0.0,0.0,48,-99.99,,,0.00,LWC V2.10 B1813,2013-03-30 05:51:00,
2013-03-30 01:56:00,39.2,20.2,-100.00,NW,316,0.0,0.0,46,-99.99,,,0.00,LWC V2.10 B1813,2013-03-30 05:56:00,
2013-03-30 02:01:00,39.4,20.8,-100.00,NW,316,0.0,0.0,47,-99.99,,,0.00,LWC V2.10 B1813,2013-03-30 06:01:00,
2013-03-30 02:06:00,39.7,20.2,-100.00,NW,316,0.0,0.0,45,-99.99,,,0.00,LWC V2.10 B1813,2013-03-30 06:06:00,
2013-03-30 02:11:00,39.4,19.8,-100.00,NW,316,0.0,0.0,45,-99.99,,,0.00,LWC V2.10 B1813,2013-03-30 06:11:00,
2013-03-30 02:16:00,39.2,20.2,-100.00,NW,316,0.0,0.0,46,-99.99,,,0.00,LWC V2.10 B1813,2013-03-30 06:16:00,
2013-03-30 02:21:00,38.8,20.8,-100.00,NW,316,0.0,0.0,48,-99.99,,,0.00,LWC V2.10 B1813,2013-03-30 06:21:00,
2013-03-30 02:26:00,39.0,20.5,-100.00,NW,316,0.0,0.0,47,-99.99,,,0.00,LWC V2.10 B1813,2013-03-30 06:26:00,
2013-03-30 02:31:00,39.2,20.7,-100.00,NW,316,0.0,0.0,47,-99.99,,,0.00,LWC V2.10 B1813,2013-03-30 06:31:00,
2013-03-30 02:36:00,39.0,21.0,-100.00,NW,316,0.0,0.0,48,-99.99,,,0.00,LWC V2.10 B1813,2013-03-30 06:36:00,
2013-03-30 02:41:00,39.0,21.5,-100.00,NW,316,0.0,0.0,49,-99.99,,,0.00,LWC V2.10 B1813,2013-03-30 06:41:00,
2013-03-30 02:46:00,39.0,21.0,-100.00,NW,316,0.0,0.0,48,-99.99,,,0.00,LWC V2.10 B1813,2013-03-30 06:46:00,
2013-03-30 02:51:00,38.8,21.3,-100.00,NW,316,0.0,0.0,49,-99.99,,,0.00,LWC V2.10 B1813,2013-03-30 06:51:00,
2013-03-30 02:56:00,38.8,21.3,-100.00,NW,316,0.0,0.0,49,-99.99,,,0.00,LWC V2.10 B1813,2013-03-30 06:56:00,
2013-03-30 03:01:00,38.8,21.3,-100.00,NW,316,0.0,0.0,49,-99.99,,,0.00,LWC V2.10 B1813,2013-03-30 07:01:00,
2013-03-30 03:06:00,38.8,21.3,-100.00,NW,316,0.0,0.0,49,-99.99,,,0.00,LWC V2.10 B1813,2013-03-30 07:06:00,
2013-03-30 03:11:00,38.8,21.3,-100.00,NW,316,0.0,0.0,49,-99.99,,,0.00,LWC V2.10 B1813,2013-03-30 07:11:00,
2013-03-30 03:16:00,38.7,21.2,-100.00,NW,316,0.0,0.0,49,-99.99,,,0.00,LWC V2.10 B1813,2013-03-30 07:16:00,
2013-03-30 03:21:00,38.7,21.2,-100.00,NW,316,0.0,0.0,49,-99.99,,,0.00,LWC V2.10 B1813,2013-03-30 07:21:00,
2013-03-30 03:26:00,38.8,21.3,-100.00,NW,316,0.0,0.0,49,-99.99,,,0.00,LWC V2.10 B1813,2013-03-30 07:26:00,
2013-03-30 03:31:00,38.8,20.8,-100.00,NW,316,0.0,0.0,48,-99.99,,,0.00,LWC V2.10 B1813,2013-03-30 07:31:00,
2013-03-30 03:36:00,38.8,20.8,-100.00,NW,316,0.0,0.0,48,-99.99,,,0.00,LWC V2.10 B1813,2013-03-30 07:36:00,
2013-03-30 03:41:00,38.8,20.8,-100.00,NW,316,0.0,0.0,48,-99.99,,,0.00,LWC V2.10 B1813,2013-03-30 07:41:00,
2013-03-30 03:46:00,38.8,20.8,-100.00,NW,316,0.0,0.0,48,-99.99,,,0.00,LWC V2.10 B1813,2013-03-30 07:46:00,
2013-03-30 03:51:00,39.0,21.0,-100.00,NW,316,0.0,0.0,48,-99.99,,,0.00,LWC V2.10 B1813,2013-03-30 07:51:00,
2013-03-30 03:56:00,39.0,21.0,-100.00,NW,316,0.0,0.0,48,-99.99,,,0.00,LWC V2.10 B1813,2013-03-30 07:56:00,
2013-03-30 04:01:00,39.0,21.0,-100.00,NW,316,0.0,0.0,48,-99.99,,,0.00,LWC V2.10 B1813,2013-03-30 08:01:00,
2013-03-30 04:06:00,38.8,20.8,-100.00,NW,316,0.0,0.0,48,-99.99,,,0.00,LWC V2.10 B1813,2013-03-30 08:06:00,
2013-03-30 04:11:00,38.7,21.2,-100.00,NW,316,0.0,0.0,49,-99.99,,,0.00,LWC V2.10 B1813,2013-03-30 08:11:00,
2013-03-30 04:16:00,38.8,21.3,-100.00,NW,316,0.0,0.0,49,-99.99,,,0.00,LWC V2.10 B1813,2013-03-30 08:16:00,
2013-03-30 04:21:00,38.7,20.7,-100.00,NW,316,0.0,0.0,48,-99.99,,,0.00,LWC V2.10 B1813,2013-03-30 08:21:00,
2013-03-30 04:26:00,38.3,20.8,-100.00,NW,316,0.0,0.0,49,-99.99,,,0.00,LWC V2.10 B1813,2013-03-30 08:26:00,
2013-03-30 04:32:00,36.7,20.3,-100.00,NW,316,0.0,0.0,51,-99.99,,,0.00,LWC V2.10 B1813,2013-03-30 08:32:00,
2013-03-30 04:37:00,36.3,20.4,-100.00,NW,316,0.0,0.0,52,-99.99,,,0.00,LWC V2.10 B1813,2013-03-30 08:37:00,
2013-03-30 04:42:00,36.3,20.4,-100.00,NW,316,0.0,0.0,52,-99.99,,,0.00,LWC V2.10 B1813,2013-03-30 08:42:00,
2013-03-30 04:47:00,36.5,21.0,-100.00,NW,316,0.0,0.0,53,-99.99,,,0.00,LWC V2.10 B1813,2013-03-30 08:47:00,
2013-03-30 04:52:00,36.9,20.9,-100.00,NW,316,0.0,0.0,52,-99.99,,,0.00,LWC V2.10 B1813,2013-03-30 08:52:00,
2013-03-30 04:57:00,36.9,20.9,-100.00,NW,316,0.0,0.0,52,-99.99,,,0.00,LWC V2.10 B1813,2013-03-30 08:57:00,
2013-03-30 05:02:00,36.7,20.3,-100.00,NW,316,0.0,0.0,51,-99.99,,,0.00,LWC V2.10 B1813,2013-03-30 09:02:00,
2013-03-30 05:07:00,37.0,20.6,-100.00,NW,316,0.0,0.0,51,-99.99,,,0.00,LWC V2.10 B1813,2013-03-30 09:07:00,
2013-03-30 05:12:00,37.4,20.5,-100.00,NW,316,0.0,0.0,50,-99.99,,,0.00,LWC V2.10 B1813,2013-03-30 09:12:00,
2013-03-30 05:17:00,37.9,20.5,-100.00,NW,316,0.0,0.0,49,-99.99,,,0.00,LWC V2.10 B1813,2013-03-30 09:17:00,
2013-03-30 05:22:00,37.8,20.3,-100.00,NW,316,0.0,0.0,49,-99.99,,,0.00,LWC V2.10 B1813,2013-03-30 09:22:00,
2013-03-30 05:27:00,38.3,20.4,-100.00,NW,316,0.0,0.0,48,-99.99,,,0.00,LWC V2.10 B1813,2013-03-30 09:27:00,
2013-03-30 05:32:00,38.1,20.2,-100.00,NW,316,0.0,0.0,48,-99.99,,,0.00,LWC V2.10 B1813,2013-03-30 09:32:00,
2013-03-30 05:37:00,37.8,19.4,-100.00,NW,316,0.0,0.0,47,-99.99,,,0.00,LWC V2.10 B1813,2013-03-30 09:37:00,
2013-03-30 05:41:00,37.2,19.8,-100.00,NW,316,0.0,0.0,49,-99.99,,,0.00,LWC V2.10 B1813,2013-03-30 09:41:00,
2013-03-30 05:46:00,36.9,20.4,-100.00,NW,316,0.0,0.0,51,-99.99,,,0.00,LWC V2.10 B1813,2013-03-30 09:46:00,
2013-03-30 05:51:00,36.9,20.4,-100.00,NW,316,0.0,0.0,51,-99.99,,,0.00,LWC V2.10 B1813,2013-03-30 09:51:00,
2013-03-30 05:56:00,36.9,20.4,-100.00,NW,316,0.0,0.0,51,-99.99,,,0.00,LWC V2.10 B1813,2013-03-30 09:56:00,
2013-03-30 06:01:00,36.7,20.3,-100.00,NW,316,0.0,0.0,51,-99.99,,,0.00,LWC V2.10 B1813,2013-03-30 10:01:00,
2013-03-30 06:06:00,36.7,20.3,-100.00,NW,316,0.0,0.0,51,-99.99,,,0.00,LWC V2.10 B1813,2013-03-30 10:06:00,
2013-03-30 06:11:00,36.7,20.3,-100.00,NW,316,0.0,0.0,51,-99.99,,,0.00,LWC V2.10 B1813,2013-03-30 10:11:00,
2013-03-30 06:16:00,36.7,20.3,-100.00,NW,316,0.0,0.0,51,-99.99,,,0.00,LWC V2.10 B1813,2013-03-30 10:16:00,
2013-03-30 06:21:00,36.9,20.4,-100.00,NW,316,0.0,0.0,51,-99.99,,,0.00,LWC V2.10 B1813,2013-03-30 10:21:00,
2013-03-30 06:26:00,36.9,20.4,-100.00,NW,316,0.0,0.0,51,-99.99,,,0.00,LWC V2.10 B1813,2013-03-30 10:26:00,
2013-03-30 06:31:00,36.7,20.3,-100.00,NW,316,0.0,0.0,51,-99.99,,,0.00,LWC V2.10 B1813,2013-03-30 10:31:00,
2013-03-30 06:36:00,36.7,20.3,-100.00,NW,316,0.0,0.0,51,-99.99,,,0.00,LWC V2.10 B1813,2013-03-30 10:36:00,
2013-03-30 06:41:00,36.7,20.3,-100.00,NW,316,0.0,0.0,51,-99.99,,,0.00,LWC V2.10 B1813,2013-03-30 10:41:00,
2013-03-30 06:46:00,36.7,20.3,-100.00,NW,316,0.0,0.0,51,-99.99,,,0.00,LWC V2.10 B1813,2013-03-30 10:46:00,
2013-03-30 06:51:00,36.3,19.9,-100.00,NW,316,0.0,0.0,51,-99.99,,,0.00,LWC V2.10 B1813,2013-03-30 10:51:00,
2013-03-30 06:56:00,36.0,20.1,-100.00,NW,316,0.0,0.0,52,-99.99,,,0.00,LWC V2.10 B1813,2013-03-30 10:56:00,
2013-03-30 07:01:00,36.1,20.2,-100.00,NW,316,0.0,0.0,52,-99.99,,,0.00,LWC V2.10 B1813,2013-03-30 11:01:00,
2013-03-30 07:06:00,35.8,19.4,-100.00,NW,316,0.0,0.0,51,-99.99,,,0.00,LWC V2.10 B1813,2013-03-30 11:06:00,
2013-03-30 07:11:00,35.6,19.7,-100.00,NW,316,0.0,0.0,52,-99.99,,,0.00,LWC V2.10 B1813,2013-03-30 11:11:00,
2013-03-30 07:16:00,35.4,20.0,-100.00,NW,316,0.0,0.0,53,-99.99,,,0.00,LWC V2.10 B1813,2013-03-30 11:16:00,
2013-03-30 07:21:00,35.2,20.3,-100.00,NW,316,0.0,0.0,54,-99.99,,,0.00,LWC V2.10 B1813,2013-03-30 11:21:00,
2013-03-30 07:26:00,35.6,20.6,-100.00,NW,316,0.0,0.0,54,-99.99,,,0.00,LWC V2.10 B1813,2013-03-30 11:26:00,
2013-03-30 07:31:00,35.8,20.8,-100.00,NW,316,0.0,0.0,54,-99.99,,,0.00,LWC V2.10 B1813,2013-03-30 11:31:00,
2013-03-30 07:36:00,36.3,20.4,-100.00,NW,316,0.0,0.0,52,-99.99,,,0.00,LWC V2.10 B1813,2013-03-30 11:36:00,
2013-03-30 07:41:00,36.5,20.6,-100.00,NW,316,0.0,0.0,52,-99.99,,,0.00,LWC V2.10 B1813,2013-03-30 11:41:00,
2013-03-30 07:46:00,36.3,20.4,-100.00,NW,316,0.0,0.0,52,-99.99,,,0.00,LWC V2.10 B1813,2013-03-30 11:46:00,
2013-03-30 07:51:00,36.0,20.1,-100.00,NW,316,0.0,0.0,52,-99.99,,,0.00,LWC V2.10 B1813,2013-03-30 11:51:00,
2013-03-30 07:56:00,35.8,20.3,-100.00,NW,316,0.0,0.0,53,-99.99,,,0.00,LWC V2.10 B1813,2013-03-30 11:56:00,
2013-03-30 08:01:00,36.0,20.5,-100.00,SSW,197,0.0,4.0,53,-99.99,,,0.00,LWC V2.10 B1813,2013-03-30 12:01:00,
2013-03-30 08:06:00,36.1,20.7,-100.00,SSW,194,0.0,0.0,53,-99.99,,,0.00,LWC V2.10 B1813,2013-03-30 12:06:00,
2013-03-30 08:11:00,36.7,20.7,-100.00,SSW,194,0.0,0.0,52,-99.99,,,0.00,LWC V2.10 B1813,2013-03-30 12:11:00,
2013-03-30 08:16:00,37.8,20.3,-100.00,SSW,194,0.0,0.0,49,-99.99,,,0.00,LWC V2.10 B1813,2013-03-30 12:16:00,
2013-03-30 08:21:00,38.8,20.8,-100.00,SSW,194,0.0,0.0,48,-99.99,,,0.00,LWC V2.10 B1813,2013-03-30 12:21:00,
2013-03-30 08:26:00,39.9,20.3,-100.00,SSW,194,0.0,0.0,45,-99.99,,,0.00,LWC V2.10 B1813,2013-03-30 12:26:00,
2013-03-30 08:31:00,41.0,19.7,-100.00,SSW,194,0.0,0.0,42,-99.99,,,0.00,LWC V2.10 B1813,2013-03-30 12:31:00,
2013-03-30 08:36:00,41.7,19.8,-100.00,SSW,194,0.0,0.0,41,-99.99,,,0.00,LWC V2.10 B1813,2013-03-30 12:36:00,
2013-03-30 08:41:00,42.1,21.2,-100.00,SSW,194,0.0,0.0,43,-99.99,,,0.00,LWC V2.10 B1813,2013-03-30 12:41:00,
2013-03-30 08:47:00,41.7,20.3,-100.00,SSW,194,0.0,0.0,42,-99.99,,,0.00,LWC V2.10 B1813,2013-03-30 12:47:00,
2013-03-30 08:52:00,42.4,20.4,-100.00,SSW,194,0.0,0.0,41,-99.99,,,0.00,LWC V2.10 B1813,2013-03-30 12:52:00,
2013-03-30 08:57:00,43.2,19.9,-100.00,SSW,194,0.0,0.0,39,-99.99,,,0.00,LWC V2.10 B1813,2013-03-30 12:57:00,
2013-03-30 09:02:00,44.6,20.6,-100.00,SSW,194,0.0,0.0,38,-99.99,,,0.00,LWC V2.10 B1813,2013-03-30 13:02:00,
2013-03-30 09:07:00,46.0,21.9,-100.00,SSW,194,0.0,0.0,38,-99.99,,,0.00,LWC V2.10 B1813,2013-03-30 13:07:00,
2013-03-30 09:12:00,47.5,22.5,-100.00,SSW,194,0.0,0.0,37,-99.99,,,0.00,LWC V2.10 B1813,2013-03-30 13:12:00,
2013-03-30 09:17:00,48.4,22.7,-100.00,SSW,194,0.0,0.0,36,-99.99,,,0.00,LWC V2.10 B1813,2013-03-30 13:17:00,
2013-03-30 09:22:00,49.3,23.5,-100.00,SSW,194,0.0,0.0,36,-99.99,,,0.00,LWC V2.10 B1813,2013-03-30 13:22:00,
2013-03-30 09:27:00,50.4,24.4,-100.00,SSW,194,0.0,0.0,36,-99.99,,,0.00,LWC V2.10 B1813,2013-03-30 13:27:00,
2013-03-30 09:32:00,51.6,26.2,-100.00,SSE,167,0.0,0.0,37,-99.99,,,0.00,LWC V2.10 B1813,2013-03-30 13:32:00,
2013-03-30 09:37:00,51.4,23.3,-100.00,South,172,0.0,0.0,33,-99.99,,,0.00,LWC V2.10 B1813,2013-03-30 13:37:00,
2013-03-30 09:42:00,51.4,23.3,-100.00,SSE,157,3.1,3.6,33,-99.99,,,0.00,LWC V2.10 B1813,2013-03-30 13:42:00,
2013-03-30 09:47:00,51.1,22.3,-100.00,SSE,163,3.1,4.0,32,-99.99,,,0.00,LWC V2.10 B1813,2013-03-30 13:47:00,
2013-03-30 09:52:00,49.8,21.2,-100.00,South,191,0.0,0.0,32,-99.99,,,0.00,LWC V2.10 B1813,2013-03-30 13:52:00,
2013-03-30 09:57:00,50.5,22.5,-100.00,SSE,163,0.0,0.0,33,-99.99,,,0.00,LWC V2.10 B1813,2013-03-30 13:57:00,
2013-03-30 10:02:00,50.5,22.5,-100.00,SSE,159,0.0,0.0,33,-99.99,,,0.00,LWC V2.10 B1813,2013-03-30 14:02:00,
2013-03-30 10:07:00,50.0,22.8,-100.00,SSE,157,0.0,0.0,34,-99.99,,,0.00,LWC V2.10 B1813,2013-03-30 14:07:00,
2013-03-30 10:12:00,49.3,22.1,-100.00,South,169,0.0,3.6,34,-99.99,,,0.00,LWC V2.10 B1813,2013-03-30 14:12:00,
2013-03-30 10:17:00,50.0,23.4,-100.00,SSE,162,0.0,0.0,35,-99.99,,,0.00,LWC V2.10 B1813,2013-03-30 14:17:00,
2013-03-30 10:22:00,49.8,23.3,-100.00,SSE,162,0.0,0.0,35,-99.99,,,0.00,LWC V2.10 B1813,2013-03-30 14:22:00,
2013-03-30 10:27:00,50.2,23.6,-100.00,SSE,152,0.0,0.0,35,-99.99,,,0.00,LWC V2.10 B1813,2013-03-30 14:27:00,
2013-03-30 10:32:00,50.7,22.7,-100.00,South,186,0.0,0.0,33,-99.99,,,0.00,LWC V2.10 B1813,2013-03-30 14:32:00,
2013-03-30 10:37:00,51.4,23.3,-100.00,SSE,155,3.6,5.8,33,-99.99,,,0.00,LWC V2.10 B1813,2013-03-30 14:37:00,
2013-03-30 10:42:00,51.6,22.7,-100.00,SE,135,0.0,0.0,32,-99.99,,,0.00,LWC V2.10 B1813,2013-03-30 14:42:00,
2013-03-30 10:47:00,51.8,21.4,-100.00,SE,131,0.0,2.7,30,-99.99,,,0.00,LWC V2.10 B1813,2013-03-30 14:47:00,
2013-03-30 10:52:00,50.2,19.2,-100.00,NE,50,2.2,4.0,29,-99.99,,,0.00,LWC V2.10 B1813,2013-03-30 14:52:00,
2013-03-30 10:57:00,51.1,19.9,-100.00,North,5,0.0,0.0,29,-99.99,,,0.00,LWC V2.10 B1813,2013-03-30 14:57:00,
2013-03-30 11:02:00,51.8,19.7,-100.00,East,101,3.6,5.8,28,-99.99,,,0.00,LWC V2.10 B1813,2013-03-30 15:02:00,
2013-03-30 11:07:00,52.5,19.5,-100.00,South,189,0.0,2.2,27,-99.99,,,0.00,LWC V2.10 B1813,2013-03-30 15:07:00,
2013-03-30 11:12:00,52.5,18.6,-100.00,North,2,2.7,5.4,26,-99.99,,,0.00,LWC V2.10 B1813,2013-03-30 15:12:00,
2013-03-30 11:17:00,53.1,20.0,-100.00,NE,50,3.6,4.0,27,-99.99,,,0.00,LWC V2.10 B1813,2013-03-30 15:17:00,
2013-03-30 11:22:00,54.1,20.0,-100.00,NNE,13,0.0,5.8,26,-99.99,,,0.00,LWC V2.10 B1813,2013-03-30 15:22:00,
2013-03-30 11:27:00,55.0,20.8,-100.00,SE,129,3.6,3.6,26,-99.99,,,0.00,LWC V2.10 B1813,2013-03-30 15:27:00,
2013-03-30 11:32:00,55.6,20.3,-100.00,South,185,4.9,4.9,25,-99.99,,,0.00,LWC V2.10 B1813,2013-03-30 15:32:00,
2013-03-30 11:37:00,53.2,19.3,-100.00,WSW,237,2.7,4.0,26,-99.99,,,0.00,LWC V2.10 B1813,2013-03-30 15:37:00,
2013-03-30 11:42:00,54.5,20.3,-100.00,SE,134,5.4,7.6,26,-99.99,,,0.00,LWC V2.10 B1813,2013-03-30 15:42:00,
2013-03-30 11:47:00,52.7,18.8,-100.00,NNE,24,3.6,5.4,26,-99.99,,,0.00,LWC V2.10 B1813,2013-03-30 15:47:00,
2013-03-30 11:52:00,52.5,18.6,-100.00,West,279,3.1,4.9,26,-99.99,,,0.00,LWC V2.10 B1813,2013-03-30 15:52:00,
2013-03-30 11:57:00,51.8,18.0,-100.00,WNW,288,3.6,3.6,26,-99.99,,,0.00,LWC V2.10 B1813,2013-03-30 15:57:00,
2013-03-30 12:02:00,53.4,20.3,-100.00,South,183,2.7,3.6,27,-99.99,,,0.00,LWC V2.10 B1813,2013-03-30 16:02:00,
2013-03-30 12:07:00,53.8,19.7,-100.00,SSW,199,3.6,4.0,26,-99.99,,,0.00,LWC V2.10 B1813,2013-03-30 16:07:00,
2013-03-30 12:12:00,54.3,20.2,-100.00,SW,235,5.8,8.1,26,-99.99,,,0.00,LWC V2.10 B1813,2013-03-30 16:12:00,
2013-03-30 12:17:00,53.1,20.0,-100.00,SW,218,5.4,5.8,27,-99.99,,,0.00,LWC V2.10 B1813,2013-03-30 16:17:00,
2013-03-30 12:22:00,53.8,19.7,-100.00,West,267,3.6,6.3,26,-99.99,,,0.00,LWC V2.10 B1813,2013-03-30 16:22:00,
2013-03-30 12:27:00,55.2,20.9,-100.00,SSE,163,5.4,6.3,26,-99.99,,,0.00,LWC V2.10 B1813,2013-03-30 16:27:00,
2013-03-30 12:32:00,56.1,20.8,-100.00,South,178,6.3,7.6,25,-99.99,,,0.00,LWC V2.10 B1813,2013-03-30 16:32:00,
2013-03-30 12:37:00,54.7,19.6,-100.00,SSW,212,3.6,6.3,25,-99.99,,,0.00,LWC V2.10 B1813,2013-03-30 16:37:00,
2013-03-30 12:42:00,52.9,18.9,-100.00,NW,309,5.4,5.8,26,-99.99,,,0.00,LWC V2.10 B1813,2013-03-30 16:42:00,
2013-03-30 12:47:00,54.7,20.5,-100.00,SW,224,3.6,7.6,26,-99.99,,,0.00,LWC V2.10 B1813,2013-03-30 16:47:00,
2013-03-30 12:52:00,55.9,20.6,-100.00,SW,232,6.3,6.3,25,-99.99,,,0.00,LWC V2.10 B1813,2013-03-30 16:52:00,
2013-03-30 12:57:00,57.4,21.9,-100.00,East,96,4.0,4.0,25,-99.99,,,0.00,LWC V2.10 B1813,2013-03-30 16:57:00,
2013-03-30 13:02:00,57.6,21.0,-100.00,WSW,242,5.4,7.2,24,-99.99,,,0.00,LWC V2.10 B1813,2013-03-30 17:02:00,
2013-03-30 13:07:00,57.0,21.6,-100.00,SW,224,8.3,8.3,25,-99.99,,,0.00,LWC V2.10 B1813,2013-03-30 17:07:00,
2013-03-30 13:12:00,57.0,18.6,-100.00,NE,44,2.7,4.9,22,-99.99,,,0.00,LWC V2.10 B1813,2013-03-30 17:12:00,
2013-03-30 13:17:00,58.6,22.9,-100.00,SE,135,4.0,5.8,25,-99.99,,,0.00,LWC V2.10 B1813,2013-03-30 17:17:00,
2013-03-30 13:22:00,59.7,20.8,-100.00,SE,146,3.1,4.0,22,-99.99,,,0.00,LWC V2.10 B1813,2013-03-30 17:22:00,
2013-03-30 13:27:00,59.4,20.5,-100.00,South,189,5.8,6.3,22,-99.99,,,0.00,LWC V2.10 B1813,2013-03-30 17:27:00,
2013-03-30 13:32:00,58.6,16.5,-100.00,South,171,6.3,8.3,19,-99.99,,,0.00,LWC V2.10 B1813,2013-03-30 17:32:00,
2013-03-30 13:37:00,58.8,16.7,-100.00,South,172,4.5,6.3,19,-99.99,,,0.00,LWC V2.10 B1813,2013-03-30 17:37:00,
2013-03-30 13:42:00,58.6,14.0,-100.00,SSE,165,3.6,3.6,17,-99.99,,,0.00,LWC V2.10 B1813,2013-03-30 17:42:00,
2013-03-30 13:47:00,58.8,16.7,-100.00,SE,137,0.0,0.0,19,-99.99,,,0.00,LWC V2.10 B1813,2013-03-30 17:47:00,
2013-03-30 13:52:00,58.1,16.1,-100.00,SSW,211,2.2,5.4,19,-99.99,,,0.00,LWC V2.10 B1813,2013-03-30 17:52:00,
2013-03-30 13:57:00,59.0,16.8,-100.00,WNW,303,0.0,4.0,19,-99.99,,,0.00,LWC V2.10 B1813,2013-03-30 17:57:00,
2013-03-30 14:02:00,59.0,16.8,-100.00,East,88,3.1,3.1,19,-99.99,,,0.00,LWC V2.10 B1813,2013-03-30 18:02:00,
2013-03-30 14:07:00,60.4,18.0,-100.00,ESE,119,5.4,5.8,19,-99.99,,,0.00,LWC V2.10 B1813,2013-03-30 18:07:00,
2013-03-30 14:12:00,61.2,14.6,-100.00,SE,130,6.3,8.1,16,-99.99,,,0.00,LWC V2.10 B1813,2013-03-30 18:12:00,
2013-03-30 14:17:00,61.3,14.8,-100.00,ESE,113,3.6,3.6,16,-99.99,,,0.00,LWC V2.10 B1813,2013-03-30 18:17:00,
2013-03-30 14:22:00,57.4,12.9,-100.00,WSW,247,3.6,4.9,17,-99.99,,,0.00,LWC V2.10 B1813,2013-03-30 18:22:00,
2013-03-30 14:27:00,58.1,16.1,-100.00,WSW,252,4.0,5.4,19,-99.99,,,0.00,LWC V2.10 B1813,2013-03-30 18:27:00,
2013-03-30 14:33:00,60.1,21.1,-100.00,SW,224,2.7,3.1,22,-99.99,,,0.00,LWC V2.10 B1813,2013-03-30 18:33:00,
2013-03-30 14:38:00,60.1,17.7,-100.00,WNW,293,3.1,5.4,19,-99.99,,,0.00,LWC V2.10 B1813,2013-03-30 18:38:00,
2013-03-30 14:43:00,60.1,17.7,-100.00,SE,138,5.4,8.1,19,-99.99,,,0.00,LWC V2.10 B1813,2013-03-30 18:43:00,
2013-03-30 14:48:00,60.1,17.7,-100.00,SSE,168,6.3,7.6,19,-99.99,,,0.00,LWC V2.10 B1813,2013-03-30 18:48:00,
2013-03-30 14:53:00,58.5,13.8,-100.00,WNW,286,3.1,5.8,17,-99.99,,,0.00,LWC V2.10 B1813,2013-03-30 18:53:00,
2013-03-30 14:58:00,59.0,16.8,-100.00,SSW,198,6.3,7.2,19,-99.99,,,0.00,LWC V2.10 B1813,2013-03-30 18:58:00,
2013-03-30 15:03:00,60.3,15.3,-100.00,ESE,120,5.4,6.3,17,-99.99,,,0.00,LWC V2.10 B1813,2013-03-30 19:03:00,
2013-03-30 15:08:00,60.3,15.3,-100.00,SW,219,6.3,7.6,17,-99.99,,,0.00,LWC V2.10 B1813,2013-03-30 19:08:00,
2013-03-30 15:13:00,58.1,13.5,-100.00,NNE,27,5.4,6.3,17,-99.99,,,0.00,LWC V2.10 B1813,2013-03-30 19:13:00,
2013-03-30 15:18:00,58.6,14.0,-100.00,NW,324,3.1,4.9,17,-99.99,,,0.00,LWC V2.10 B1813,2013-03-30 19:18:00,
2013-03-30 15:23:00,58.6,16.5,-100.00,SW,217,4.9,5.4,19,-99.99,,,0.00,LWC V2.10 B1813,2013-03-30 19:23:00,
2013-03-30 15:28:00,58.6,14.0,-100.00,WSW,258,2.7,4.0,17,-99.99,,,0.00,LWC V2.10 B1813,2013-03-30 19:28:00,
2013-03-30 15:33:00,59.0,14.3,-100.00,ENE,74,4.9,4.9,17,-99.99,,,0.00,LWC V2.10 B1813,2013-03-30 19:33:00,
2013-03-30 15:38:00,57.7,13.2,-100.00,NE,37,2.7,4.9,17,-99.99,,,0.00,LWC V2.10 B1813,2013-03-30 19:38:00,
2013-03-30 15:43:00,59.0,14.3,-100.00,NW,322,0.0,3.6,17,-99.99,,,0.00,LWC V2.10 B1813,2013-03-30 19:43:00,
2013-03-30 15:48:00,61.0,14.5,-100.00,NE,50,0.0,3.6,16,-99.99,,,0.00,LWC V2.10 B1813,2013-03-30 19:48:00,
2013-03-30 15:53:00,60.8,18.3,-100.00,West,261,3.6,6.3,19,-99.99,,,0.00,LWC V2.10 B1813,2013-03-30 19:53:00,
2013-03-30 15:58:00,60.8,14.3,-100.00,North,353,3.6,4.0,16,-99.99,,,0.00,LWC V2.10 B1813,2013-03-30 19:58:00,
2013-03-30 16:03:00,62.1,15.4,-100.00,NNW,345,3.6,4.5,16,-99.99,,,0.00,LWC V2.10 B1813,2013-03-30 20:03:00,
2013-03-30 16:08:00,62.2,15.5,-100.00,NNE,16,4.9,4.9,16,-99.99,,,0.00,LWC V2.10 B1813,2013-03-30 20:08:00,
2013-03-30 16:13:00,59.9,15.0,-100.00,NNE,18,4.0,5.8,17,-99.99,,,0.00,LWC V2.10 B1813,2013-03-30 20:13:00,
2013-03-30 16:18:00,59.5,14.7,-100.00,NE,55,3.1,7.6,17,-99.99,,,0.00,LWC V2.10 B1813,2013-03-30 20:18:00,
2013-03-30 16:23:00,60.4,15.4,-100.00,North,4,2.7,5.4,17,-99.99,,,0.00,LWC V2.10 B1813,2013-03-30 20:23:00,
2013-03-30 16:28:00,60.8,14.3,-100.00,SE,129,2.2,3.6,16,-99.99,,,0.00,LWC V2.10 B1813,2013-03-30 20:28:00,
2013-03-30 16:33:00,61.9,15.2,-100.00,South,170,2.7,4.0,16,-99.99,,,0.00,LWC V2.10 B1813,2013-03-30 20:33:00,
2013-03-30 16:38:00,61.3,14.8,-100.00,SSE,165,3.6,6.7,16,-99.99,,,0.00,LWC V2.10 B1813,2013-03-30 20:38:00,
2013-03-30 16:43:00,60.8,14.3,-100.00,SSE,150,4.9,5.4,16,-99.99,,,0.00,LWC V2.10 B1813,2013-03-30 20:43:00,
2013-03-30 16:48:00,59.9,15.0,-100.00,South,173,3.6,5.4,17,-99.99,,,0.00,LWC V2.10 B1813,2013-03-30 20:48:00,
2013-03-30 16:53:00,60.6,15.6,-100.00,ESE,122,2.7,2.7,17,-99.99,,,0.00,LWC V2.10 B1813,2013-03-30 20:53:00,
2013-03-30 16:58:00,61.7,15.1,-100.00,SE,136,0.0,2.2,16,-99.99,,,0.00,LWC V2.10 B1813,2013-03-30 20:58:00,
2013-03-30 17:03:00,62.8,15.9,-100.00,South,176,0.0,0.0,16,-99.99,,,0.00,LWC V2.10 B1813,2013-03-30 21:03:00,
2013-03-30 17:08:00,60.4,15.4,-100.00,East,81,4.0,4.0,17,-99.99,,,0.00,LWC V2.10 B1813,2013-03-30 21:08:00,
2013-03-30 17:13:00,60.8,14.3,-100.00,WSW,237,2.7,4.5,16,-99.99,,,0.00,LWC V2.10 B1813,2013-03-30 21:13:00,
2013-03-30 17:18:00,59.4,14.6,-100.00,SW,230,5.8,6.3,17,-99.99,,,0.00,LWC V2.10 B1813,2013-03-30 21:18:00,
2013-03-30 17:23:00,57.6,13.1,-100.00,SW,233,6.7,8.7,17,-99.99,,,0.00,LWC V2.10 B1813,2013-03-30 21:23:00,
2013-03-30 17:28:00,58.3,13.7,-100.00,SSW,207,0.0,5.8,17,-99.99,,,0.00,LWC V2.10 B1813,2013-03-30 21:28:00,
2013-03-30 17:33:00,58.6,14.0,-100.00,SSW,202,4.9,6.7,17,-99.99,,,0.00,LWC V2.10 B1813,2013-03-30 21:33:00,
2013-03-30 17:38:00,58.5,16.4,-100.00,WSW,253,2.2,4.0,19,-99.99,,,0.00,LWC V2.10 B1813,2013-03-30 21:38:00,
2013-03-30 17:43:00,59.2,17.0,-100.00,SW,233,3.6,3.6,19,-99.99,,,0.00,LWC V2.10 B1813,2013-03-30 21:43:00,
2013-03-30 17:48:00,59.4,17.1,-100.00,WSW,254,0.0,0.0,19,-99.99,,,0.00,LWC V2.10 B1813,2013-03-30 21:48:00,
2013-03-30 17:53:00,59.4,17.1,-100.00,West,264,0.0,0.0,19,-99.99,,,0.00,LWC V2.10 B1813,2013-03-30 21:53:00,
2013-03-30 17:58:00,59.4,17.1,-100.00,WSW,241,4.0,6.3,19,-99.99,,,0.00,LWC V2.10 B1813,2013-03-30 21:58:00,
2013-03-30 18:03:00,58.6,14.0,-100.00,SW,232,0.0,2.7,17,-99.99,,,0.00,LWC V2.10 B1813,2013-03-30 22:03:00,
2013-03-30 18:08:00,58.5,13.8,-100.00,SW,231,2.2,5.4,17,-99.99,,,0.00,LWC V2.10 B1813,2013-03-30 22:08:00,
2013-03-30 18:13:00,58.6,16.5,-100.00,SW,226,0.0,0.0,19,-99.99,,,0.00,LWC V2.10 B1813,2013-03-30 22:13:00,
2013-03-30 18:18:00,58.8,16.7,-100.00,SW,226,0.0,0.0,19,-99.99,,,0.00,LWC V2.10 B1813,2013-03-30 22:18:00,
2013-03-30 18:23:00,59.4,17.1,-100.00,SW,226,0.0,0.0,19,-99.99,,,0.00,LWC V2.10 B1813,2013-03-30 22:23:00,
2013-03-30 18:28:00,59.7,14.8,-100.00,West,266,0.0,0.0,17,-99.99,,,0.00,LWC V2.10 B1813,2013-03-30 22:28:00,
2013-03-30 18:33:00,58.8,14.1,-100.00,West,266,0.0,0.0,17,-99.99,,,0.00,LWC V2.10 B1813,2013-03-30 22:33:00,
2013-03-30 18:38:00,59.0,14.3,-100.00,West,266,0.0,0.0,17,-99.99,,,0.00,LWC V2.10 B1813,2013-03-30 22:38:00,
2013-03-30 18:43:00,59.0,14.3,-100.00,West,266,0.0,0.0,17,-99.99,,,0.00,LWC V2.10 B1813,2013-03-30 22:43:00,
2013-03-30 18:48:00,57.7,15.8,-100.00,North,357,2.7,3.6,19,-99.99,,,0.00,LWC V2.10 B1813,2013-03-30 22:48:00,
2013-03-30 18:53:00,57.2,15.3,-100.00,NNE,22,3.1,3.6,19,-99.99,,,0.00,LWC V2.10 B1813,2013-03-30 22:53:00,
2013-03-30 18:58:00,56.3,15.8,-100.00,North,7,3.6,3.6,20,-99.99,,,0.00,LWC V2.10 B1813,2013-03-30 22:58:00,
2013-03-30 19:03:00,55.9,15.5,-100.00,NNE,14,2.7,3.6,20,-99.99,,,0.00,LWC V2.10 B1813,2013-03-30 23:03:00,
2013-03-30 19:08:00,55.9,15.5,-100.00,NNE,14,0.0,2.2,20,-99.99,,,0.00,LWC V2.10 B1813,2013-03-30 23:08:00,
2013-03-30 19:13:00,55.2,14.9,-100.00,NNE,14,0.0,0.0,20,-99.99,,,0.00,LWC V2.10 B1813,2013-03-30 23:13:00,
2013-03-30 19:18:00,55.0,14.7,-100.00,NNE,14,0.0,0.0,20,-99.99,,,0.00,LWC V2.10 B1813,2013-03-30 23:18:00,
2013-03-30 19:23:00,54.9,14.6,-100.00,NNE,14,0.0,0.0,20,-99.99,,,0.00,LWC V2.10 B1813,2013-03-30 23:23:00,
2013-03-30 19:28:00,54.7,14.4,-100.00,NNE,14,0.0,0.0,20,-99.99,,,0.00,LWC V2.10 B1813,2013-03-30 23:28:00,
2013-03-30 19:33:00,54.5,14.3,-100.00,NNE,14,0.0,0.0,20,-99.99,,,0.00,LWC V2.10 B1813,2013-03-30 23:33:00,
2013-03-30 19:38:00,54.0,17.0,-100.00,NNE,14,0.0,0.0,23,-99.99,,,0.00,LWC V2.10 B1813,2013-03-30 23:38:00,
2013-03-30 19:43:00,53.8,16.9,-100.00,NNE,14,0.0,0.0,23,-99.99,,,0.00,LWC V2.10 B1813,2013-03-30 23:43:00,
2013-03-30 19:48:00,53.4,16.6,-100.00,NNE,14,0.0,0.0,23,-99.99,,,0.00,LWC V2.10 B1813,2013-03-30 23:48:00,
2013-03-30 19:53:00,53.2,16.4,-100.00,NNE,14,0.0,0.0,23,-99.99,,,0.00,LWC V2.10 B1813,2013-03-30 23:53:00,
2013-03-30 19:58:00,52.9,14.0,-100.00,NNE,14,0.0,0.0,21,-99.99,,,0.00,LWC V2.10 B1813,2013-03-30 23:58:00,
2013-03-30 20:03:00,52.9,16.1,-100.00,NNE,14,0.0,0.0,23,-99.99,,,0.00,LWC V2.10 B1813,2013-03-31 00:03:00,
2013-03-30 20:08:00,53.1,16.3,-100.00,North,357,0.0,0.0,23,-99.99,,,0.00,LWC V2.10 B1813,2013-03-31 00:08:00,
2013-03-30 20:13:00,52.9,16.1,-100.00,North,357,0.0,0.0,23,-99.99,,,0.00,LWC V2.10 B1813,2013-03-31 00:13:00,
2013-03-30 20:18:00,52.7,16.0,-100.00,North,357,0.0,0.0,23,-99.99,,,0.00,LWC V2.10 B1813,2013-03-31 00:18:00,
2013-03-30 20:23:00,52.7,16.0,-100.00,North,357,0.0,0.0,23,-99.99,,,0.00,LWC V2.10 B1813,2013-03-31 00:23:00,
2013-03-30 20:28:00,52.2,15.5,-100.00,North,357,0.0,0.0,23,-99.99,,,0.00,LWC V2.10 B1813,2013-03-31 00:28:00,
2013-03-30 20:33:00,52.2,18.3,-100.00,North,357,3.1,3.1,26,-99.99,,,0.00,LWC V2.10 B1813,2013-03-31 00:33:00,
2013-03-30 20:38:00,51.8,15.2,-100.00,North,357,3.1,3.6,23,-99.99,,,0.00,LWC V2.10 B1813,2013-03-31 00:38:00,
2013-03-30 20:43:00,51.6,17.9,-100.00,North,357,3.6,3.6,26,-99.99,,,0.00,LWC V2.10 B1813,2013-03-31 00:43:00,
2013-03-30 20:48:00,51.4,17.7,-100.00,North,357,3.6,4.0,26,-99.99,,,0.00,LWC V2.10 B1813,2013-03-31 00:48:00,
2013-03-30 20:53:00,51.6,17.9,-100.00,North,0,3.6,3.6,26,-99.99,,,0.00,LWC V2.10 B1813,2013-03-31 00:53:00,
2013-03-30 20:58:00,51.4,17.7,-100.00,North,357,3.6,3.6,26,-99.99,,,0.00,LWC V2.10 B1813,2013-03-31 00:58:00,
2013-03-30 21:03:00,51.3,17.6,-100.00,North,1,3.1,3.6,26,-99.99,,,0.00,LWC V2.10 B1813,2013-03-31 01:03:00,
2013-03-30 21:08:00,51.1,17.4,-100.00,North,0,4.0,4.0,26,-99.99,,,0.00,LWC V2.10 B1813,2013-03-31 01:08:00,
2013-03-30 21:13:00,51.1,17.4,-100.00,North,1,3.1,3.6,26,-99.99,,,0.00,LWC V2.10 B1813,2013-03-31 01:13:00,
2013-03-30 21:18:00,50.7,17.1,-100.00,North,1,3.1,3.6,26,-99.99,,,0.00,LWC V2.10 B1813,2013-03-31 01:18:00,
2013-03-30 21:23:00,50.4,16.8,-100.00,North,1,4.0,4.0,26,-99.99,,,0.00,LWC V2.10 B1813,2013-03-31 01:23:00,
2013-03-30 21:28:00,50.4,16.8,-100.00,North,357,3.6,3.6,26,-99.99,,,0.00,LWC V2.10 B1813,2013-03-31 01:28:00,
2013-03-30 21:33:00,50.0,16.5,-100.00,North,357,4.0,4.0,26,-99.99,,,0.00,LWC V2.10 B1813,2013-03-31 01:33:00,
2013-03-30 21:38:00,50.0,16.5,-100.00,North,7,3.6,3.6,26,-99.99,,,0.00,LWC V2.10 B1813,2013-03-31 01:38:00,
2013-03-30 21:43:00,50.2,16.6,-100.00,North,357,3.6,4.0,26,-99.99,,,0.00,LWC V2.10 B1813,2013-03-31 01:43:00,
2013-03-30 21:48:00,50.0,17.4,-100.00,North,357,4.0,4.0,27,-99.99,,,0.00,LWC V2.10 B1813,2013-03-31 01:48:00,
2013-03-30 21:53:00,49.8,17.2,-100.00,North,357,3.6,4.0,27,-99.99,,,0.00,LWC V2.10 B1813,2013-03-31 01:53:00,
2013-03-30 21:58:00,50.0,17.4,-100.00,North,1,3.6,4.9,27,-99.99,,,0.00,LWC V2.10 B1813,2013-03-31 01:58:00,
2013-03-30 22:03:00,49.5,16.9,-100.00,North,357,3.1,3.6,27,-99.99,,,0.00,LWC V2.10 B1813,2013-03-31 02:03:00,
2013-03-30 22:08:00,49.3,16.7,-100.00,North,357,3.6,4.0,27,-99.99,,,0.00,LWC V2.10 B1813,2013-03-31 02:08:00,
2013-03-30 22:13:00,49.1,16.6,-100.00,North,3,3.6,4.0,27,-99.99,,,0.00,LWC V2.10 B1813,2013-03-31 02:13:00,
2013-03-30 22:18:00,49.1,17.4,-100.00,North,7,4.0,4.0,28,-99.99,,,0.00,LWC V2.10 B1813,2013-03-31 02:18:00,
2013-03-30 22:23:00,49.3,17.6,-100.00,North,4,3.6,4.0,28,-99.99,,,0.00,LWC V2.10 B1813,2013-03-31 02:23:00,
2013-03-30 22:28:00,49.5,17.7,-100.00,North,2,4.0,4.0,28,-99.99,,,0.00,LWC V2.10 B1813,2013-03-31 02:28:00,
2013-03-30 22:33:00,49.5,17.7,-100.00,North,357,3.6,3.6,28,-99.99,,,0.00,LWC V2.10 B1813,2013-03-31 02:33:00,
2013-03-30 22:38:00,49.1,17.4,-100.00,North,3,3.6,4.0,28,-99.99,,,0.00,LWC V2.10 B1813,2013-03-31 02:38:00,
2013-03-30 22:43:00,49.5,17.7,-100.00,NNE,21,4.0,4.0,28,-99.99,,,0.00,LWC V2.10 B1813,2013-03-31 02:43:00,
2013-03-30 22:48:00,49.6,17.0,-100.00,NNE,23,3.6,4.0,27,-99.99,,,0.00,LWC V2.10 B1813,2013-03-31 02:48:00,
2013-03-30 22:54:00,49.6,17.0,-100.00,North,8,2.7,4.9,27,-99.99,,,0.00,LWC V2.10 B1813,2013-03-31 02:54:00,
2013-03-30 22:59:00,49.5,17.7,-100.00,North,6,3.1,3.6,28,-99.99,,,0.00,LWC V2.10 B1813,2013-03-31 02:59:00,
2013-03-30 23:04:00,49.3,16.7,-100.00,North,2,0.0,0.0,27,-99.99,,,0.00,LWC V2.10 B1813,2013-03-31 03:04:00,
2013-03-30 23:09:00,49.3,16.7,-100.00,NNE,22,2.7,3.1,27,-99.99,,,0.00,LWC V2.10 B1813,2013-03-31 03:09:00,
2013-03-30 23:14:00,49.3,16.7,-100.00,NE,42,4.0,4.0,27,-99.99,,,0.00,LWC V2.10 B1813,2013-03-31 03:14:00,
2013-03-30 23:19:00,49.1,17.4,-100.00,NE,45,3.1,3.6,28,-99.99,,,0.00,LWC V2.10 B1813,2013-03-31 03:19:00,
2013-03-30 23:24:00,49.3,16.7,-100.00,ENE,59,3.1,3.6,27,-99.99,,,0.00,LWC V2.10 B1813,2013-03-31 03:24:00,
2013-03-30 23:29:00,48.9,17.3,-100.00,NNE,20,2.7,2.7,28,-99.99,,,0.00,LWC V2.10 B1813,2013-03-31 03:29:00,
2013-03-30 23:34:00,48.7,16.3,-100.00,NNE,32,0.0,0.0,27,-99.99,,,0.00,LWC V2.10 B1813,2013-03-31 03:34:00,
2013-03-30 23:39:00,48.7,17.1,-100.00,NE,37,2.2,3.1,28,-99.99,,,0.00,LWC V2.10 B1813,2013-03-31 03:39:00,
2013-03-30 23:44:00,48.7,17.1,-100.00,NE,45,2.2,2.7,28,-99.99,,,0.00,LWC V2.10 B1813,2013-03-31 03:44:00,
2013-03-30 23:49:00,48.4,16.8,-100.00,NE,45,0.0,0.0,28,-99.99,,,0.00,LWC V2.10 B1813,2013-03-31 03:49:00,
2013-03-30 23:54:00,48.4,16.8,-100.00,NE,45,0.0,0.0,28,-99.99,,,0.00,LWC V2.10 B1813,2013-03-31 03:54:00,
2013-03-30 23:59:00,48.2,16.6,-100.00,NE,45,0.0,0.0,28,-99.99,,,0.00,LWC V2.10 B1813,2013-03-31 03:59:00,